Theta_e
293 292 294 294 294 295 294 294 294 293 294 293 293 294 294 295 294 292 292 292 292 292 292 292 291 291 292 290 289 289 289 288 289 288 288 288 287 287 288 287 286 286
294 294 295 294 294 295 294 293 294 294 294 294 294 294 294 294 294 292 293 292 292 292 292 292 291 291 291 290 290 289 289 289 289 290 288 287 288 287 287 287 287 287
293 293 293 293 294 294 294 294 293 293 293 294 294 294 294 294 294 293 293 292 292 293 292 292 291 291 291 290 290 289 290 289 289 289 288 288 288 287 288 287 287 287
294 294 294 294 294 294 294 294 294 294 293 293 294 294 294 295 294 293 293 293 292 293 293 292 292 292 290 290 289 289 290 290 290 288 288 288 289 288 288 287 288 287
293 294 294 294 294 294 293 294 294 294 294 294 294 294 294 293 293 293 293 293 292 292 293 293 292 292 291 291 290 290 290 290 290 289 289 289 289 288 289 288 288 288
293 293 293 293 293 293 293 293 294 294 294 294 294 294 294 293 293 293 293 293 293 292 292 292 292 292 292 291 291 290 291 291 291 289 289 289 290 289 289 289 288 288
292 292 292 293 293 293 293 293 293 293 294 293 293 294 293 293 293 293 293 293 293 293 292 293 292 293 292 291 291 291 291 291 291 290 289 290 290 290 289 289 289 288
292 292 292 292 292 292 292 293 293 293 293 293 293 293 293 293 293 293 293 293 292 292 292 292 292 292 292 290 291 291 291 292 291 290 290 290 290 290 290 290 289 289
291 291 292 292 291 292 291 292 292 292 292 292 292 292 293 293 293 293 293 292 292 292 292 292 292 292 292 291 291 291 291 291 291 290 290 290 290 290 291 291 289 289
291 291 291 291 291 291 291 291 291 291 291 291 291 291 292 292 292 292 292 292 292 292 292 292 292 292 292 292 291 291 291 291 291 291 290 290 290 291 291 291 290 290
290 290 290 290 290 290 290 290 290 291 291 291 290 290 291 291 291 291 291 291 291 291 291 291 292 292 292 292 292 291 291 291 291 291 291 291 291 291 292 291 291 290
289 289 289 289 289 289 289 290 290 290 290 290 290 290 290 290 290 290 290 290 290 290 290 290 291 291 291 291 291 291 291 291 291 291 291 291 291 291 291 291 291 291
288 288 289 288 289 289 289 289 289 289 289 289 289 289 289 289 289 289 290 289 290 290 290 290 290 290 290 290 290 290 290 290 290 290 291 291 291 291 291 291 291 291
288 288 288 288 288 288 288 288 288 288 288 288 288 288 288 288 288 288 289 289 289 289 289 289 289 290 290 290 290 290 290 290 290 290 290 290 290 291 291 291 291 291
287 287 288 288 288 288 287 287 288 288 288 287 287 287 288 288 288 288 287 288 288 288 288 289 289 289 290 290 290 290 290 289 289 289 289 289 289 290 290 290 290 291
286 286 286 287 287 287 286 286 286 286 286 286 285 286 286 286 286 287 287 287 287 287 287 288 288 289 289 291 291 290 289 289 289 289 289 289 289 289 289 290 290 290
284 284 285 285 286 286 285 285 286 286 285 284 283 284 284 285 285 285 285 286 286 286 286 287 287 288 290 291 292 292 289 286 286 287 288 288 288 288 288 288 289 290
282 282 283 284 285 284 284 284 284 285 284 283 282 282 283 283 284 283 284 284 284 284 285 285 286 288 289 290 291 290 287 285 284 284 286 287 287 287 287 288 288 288
280 280 281 282 283 283 283 282 283 284 284 282 281 281 281 282 282 282 281 282 282 281 282 283 283 286 287 289 290 287 286 285 282 283 284 284 285 286 286 286 286 287
279 279 279 280 282 281 280 280 281 282 283 282 280 280 280 280 280 279 280 280 280 279 280 280 280 284 285 286 286 285 285 284 281 282 282 281 282 283 284 285 285 285
278 277 277 279 280 279 278 278 279 280 282 281 279 279 278 279 279 278 278 278 278 279 278 278 279 282 283 284 284 284 284 283 281 281 280 279 279 280 281 283 284 285
277 276 276 277 277 277 277 277 277 279 279 279 279 278 278 278 278 278 277 277 278 278 277 277 278 281 282 282 283 283 284 280 279 279 278 278 278 278 280 282 283 284
276 275 275 276 276 275 275 275 276 277 277 278 277 277 277 277 277 277 277 277 277 277 276 276 276 279 280 281 282 282 281 278 278 278 277 277 277 278 279 281 283 284
275 274 274 275 275 274 274 274 275 275 275 276 276 276 276 276 276 276 276 276 276 276 276 275 275 277 279 280 281 281 280 277 277 277 276 277 277 278 279 279 279 281
274 274 273 274 274 273 274 273 273 274 274 275 275 275 275 275 275 275 275 275 275 275 276 275 274 275 278 279 280 280 279 277 277 276 276 276 276 275 276 276 277 278
273 273 273 273 273 273 273 273 273 273 273 273 274 274 274 273 273 273 273 273 274 274 274 274 274 274 275 278 278 279 279 278 277 276 274 273 274 274 274 274 275 275
Wind_Speed
4 3 5 5 6 5 6 6 6 5 6 6 6 7 7 7 5 5 6 5 5 6 7 7 6 6 6 5 5 5 5 7 7 6 6 6 7 7 8 8 6 7
5 4 4 4 5 5 5 4 6 5 7 6 6 6 7 6 7 5 6 6 5 7 6 6 6 6 6 6 5 6 6 6 8 4 6 7 8 7 9 9 9 7
6 6 6 6 7 7 7 5 4 5 5 6 6 6 7 5 7 5 5 5 6 7 6 6 6 6 6 6 5 5 6 7 8 6 6 8 7 7 9 8 7 8
8 7 7 7 7 7 7 7 7 5 5 6 6 7 5 6 5 6 6 5 5 7 6 5 6 6 5 6 5 6 7 7 7 4 6 6 7 7 9 7 8 7
7 8 8 7 7 7 6 7 8 8 7 7 7 6 7 7 6 7 6 6 5 6 6 6 5 6 5 6 5 6 6 7 6 5 7 8 8 6 8 6 8 10
9 7 8 8 8 8 9 9 8 8 9 9 9 8 7 6 6 6 7 7 6 6 7 6 6 6 5 6 5 6 6 7 7 5 7 9 9 7 7 6 8 10
9 9 11 9 9 10 10 10 10 10 10 8 7 9 8 9 8 8 7 7 7 7 6 7 6 7 5 4 5 6 6 6 7 6 7 9 7 9 7 7 8 10
10 9 9 10 11 11 12 11 10 11 10 10 10 10 9 10 10 9 8 8 7 8 7 7 7 7 6 4 6 6 7 5 6 7 7 9 7 9 10 7 7 10
9 10 11 11 12 11 12 12 11 10 10 10 11 10 9 9 10 10 10 9 8 8 8 8 8 7 7 5 6 6 8 8 6 6 7 8 9 10 10 8 7 9
11 10 12 12 12 11 12 12 11 10 10 11 10 9 11 10 9 10 10 10 10 10 10 9 10 9 9 7 7 7 7 8 8 7 7 8 9 10 10 8 8 9
11 10 11 11 11 10 11 11 11 10 10 11 12 12 11 11 11 10 10 11 11 11 11 10 10 9 9 9 9 7 7 8 9 8 7 8 8 9 9 9 9 9
10 10 10 10 10 10 10 10 10 10 10 10 10 12 12 11 11 11 10 11 11 11 10 10 10 9 9 9 9 9 9 8 9 9 9 9 9 9 9 8 9 9
11 11 10 10 10 10 9 9 10 9 10 10 9 9 10 11 11 11 10 10 11 11 11 11 10 9 9 10 10 10 9 9 10 9 9 9 8 9 9 8 9 9
10 9 10 10 9 9 10 10 10 10 10 9 9 11 10 11 11 11 10 8 9 9 10 9 9 10 10 11 11 11 11 10 10 10 10 10 10 10 9 9 9 9
10 9 9 10 10 10 11 11 10 10 10 10 10 10 9 10 10 10 11 11 11 10 10 9 9 9 9 12 12 13 12 11 12 12 11 11 11 11 10 10 9 8
10 10 10 10 11 12 11 10 10 10 10 10 11 10 10 10 10 10 10 11 12 12 11 9 9 7 14 20 17 13 12 11 12 11 11 11 11 11 11 11 10 9
11 11 10 11 10 10 11 11 11 10 10 11 12 11 11 11 10 12 11 11 11 12 12 11 9 10 20 19 19 20 15 13 13 12 11 10 10 10 11 11 11 11
11 11 12 11 11 12 11 11 10 10 10 10 12 12 12 10 11 11 11 11 10 11 11 11 11 16 23 22 19 21 21 15 12 11 11 11 10 10 10 10 11 11
11 12 11 11 11 11 11 11 11 11 11 11 13 11 10 11 11 11 11 11 11 12 11 12 11 18 24 23 21 23 25 20 11 11 11 12 12 12 12 11 11 11
11 11 11 11 11 11 11 12 12 12 10 9 10 11 11 11 11 12 12 12 12 12 12 11 12 18 26 26 24 26 26 21 10 11 10 11 13 13 12 12 12 11
11 11 11 11 11 12 12 12 12 12 11 10 10 11 11 11 11 12 12 12 13 13 11 12 11 23 25 27 27 27 28 21 11 10 10 11 12 12 13 12 11 11
11 11 11 10 10 11 11 12 12 12 12 11 10 10 10 9 10 11 13 14 13 13 13 14 14 24 27 27 29 27 30 15 12 12 12 11 12 11 11 10 10 10
10 11 10 10 10 11 11 11 12 12 11 10 11 10 10 10 10 10 10 11 13 12 13 14 13 19 27 28 27 30 23 15 15 14 14 14 12 11 10 9 9 11
10 10 10 10 10 11 11 11 10 9 10 10 11 11 10 10 10 10 9 9 12 13 13 14 13 17 25 26 27 28 25 16 13 12 13 12 12 11 10 12 16 21
10 10 10 9 10 10 10 11 11 11 10 10 9 9 9 10 10 9 10 9 10 12 15 15 14 16 23 25 27 28 24 15 13 12 13 13 14 14 13 11 11 12
9 10 10 9 10 11 11 11 10 10 11 10 9 8 9 9 9 9 12 10 10 11 11 13 15 15 18 27 28 30 29 18 12 13 15 17 15 14 13 14 10 11
Wind_Direction
281 277 272 280 276 267 276 283 281 276 277 278 271 279 277 280 291 277 267 262 250 251 251 245 243 245 245 241 235 240 240 243 251 248 248 245 251 252 260 260 257 244
328 313 300 295 295 289 280 271 281 279 283 284 276 280 283 285 285 278 275 273 268 257 258 255 247 244 246 243 238 233 245 242 250 236 242 240 244 243 251 251 251 253
348 345 339 331 320 315 311 306 289 282 283 285 291 286 284 285 288 285 275 271 277 275 270 262 263 256 251 250 246 241 246 247 250 245 234 243 243 238 244 246 249 243
354 352 347 339 334 329 327 329 322 315 306 307 301 296 293 292 294 294 290 281 274 279 277 276 264 266 257 254 246 247 247 252 252 256 248 255 248 242 248 241 248 249
358 354 357 352 348 344 344 344 339 335 331 318 313 313 311 310 308 303 299 296 285 282 285 280 275 265 260 258 239 251 250 255 258 243 250 256 253 240 249 237 249 252
9 7 4 4 358 0 359 359 348 344 341 341 336 325 322 319 314 308 307 306 303 297 295 290 285 279 268 265 260 252 259 261 261 240 249 254 260 245 249 238 244 253
8 7 5 5 5 9 9 3 358 355 353 342 337 345 340 336 334 327 319 315 312 309 303 301 299 297 288 276 272 269 264 257 267 256 253 262 258 264 252 245 246 251
13 12 12 12 14 15 13 9 6 1 355 353 358 348 350 343 343 338 335 331 328 321 317 310 306 300 301 295 285 281 277 265 264 261 257 261 262 264 263 249 247 254
21 20 16 17 18 16 13 9 5 3 1 0 359 354 352 356 347 346 343 342 338 334 330 326 322 316 311 309 294 286 285 285 272 264 263 265 266 264 265 263 256 252
26 20 21 19 19 13 11 7 5 5 1 2 1 357 358 356 357 352 352 352 350 346 345 339 336 333 328 321 309 299 295 291 291 281 267 266 267 272 273 269 261 264
24 20 21 20 18 14 12 7 7 5 5 4 1 3 1 359 359 360 358 358 356 351 347 347 343 338 336 332 328 321 308 304 299 296 287 280 276 275 276 274 270 263
20 19 19 18 15 15 12 9 6 8 6 6 5 2 1 3 2 0 1 357 355 353 350 348 345 345 341 338 335 333 328 320 314 308 303 296 291 286 282 278 274 272
17 16 13 12 12 9 7 7 9 6 8 7 2 4 3 2 0 359 359 357 354 353 354 350 348 347 348 348 345 340 337 330 325 320 314 311 303 298 293 287 281 278
18 13 13 10 9 9 8 8 6 7 7 3 3 5 4 1 359 356 352 355 354 354 351 350 349 351 353 352 347 345 341 337 332 327 322 318 313 308 304 297 291 285
13 13 10 11 10 10 11 7 7 5 4 5 5 4 0 358 356 356 353 354 355 355 353 352 355 355 356 349 348 346 347 342 339 333 327 323 319 316 311 308 304 298
13 11 10 8 10 10 7 4 4 3 4 6 5 2 359 356 357 358 358 357 353 352 352 355 353 355 348 348 350 350 348 346 340 335 330 326 322 320 317 316 312 308
15 11 7 10 7 7 5 3 2 1 4 6 3 0 359 357 356 359 359 356 355 351 349 349 349 347 347 348 349 354 356 351 342 333 328 325 321 318 317 315 314 313
15 10 9 7 6 7 5 1 358 359 4 5 3 359 358 353 359 0 356 355 353 352 349 347 343 344 345 345 349 356 356 349 339 332 329 326 323 320 316 314 312 312
14 12 8 6 5 3 1 359 360 359 2 3 4 353 350 355 355 357 355 354 352 350 349 345 342 343 343 343 347 352 349 346 338 333 332 329 326 323 319 317 314 311
12 10 7 3 1 2 0 0 0 359 356 356 355 352 354 351 353 355 352 352 351 347 345 342 342 341 342 343 345 345 344 344 331 331 329 328 326 321 316 314 312 312
13 9 4 360 1 2 359 359 357 352 355 355 356 351 350 349 350 349 347 345 344 343 341 342 339 341 342 342 343 341 341 340 329 325 324 324 321 316 311 308 309 308
12 8 1 360 0 1 359 356 354 351 351 350 349 346 345 344 345 349 345 344 341 339 341 338 338 340 341 341 340 340 341 336 330 325 323 320 318 316 310 308 307 306
10 7 357 358 359 359 358 354 351 349 349 348 344 343 344 342 345 341 337 334 334 337 338 334 334 340 340 339 338 340 341 334 331 327 322 321 318 313 311 314 326 335
7 4 356 355 358 358 354 350 347 346 346 347 342 340 341 341 337 333 332 334 332 336 337 332 331 337 338 335 337 340 338 329 322 319 314 316 317 325 335 332 323 321
4 1 355 353 356 357 350 348 346 345 340 338 339 336 336 335 334 329 330 330 333 330 331 331 331 332 335 336 337 337 333 325 321 315 320 327 329 321 318 317 316 321
1 359 352 353 353 352 349 347 339 338 339 337 335 335 332 332 330 330 332 331 333 331 331 336 331 330 331 336 337 332 330 330 331 336 332 325 321 320 320 321 322 322